Terminal Aerodrome Forecast
Issued by NWS Quad Cities IA IL

Home | Current Version | Previous Version | Text Only | Print | Product List | Glossary On
Versions: 1 2 3 4 5 6 7 8 9 10 11 12 13 14 15 16 17
000
FTUS43 KDVN 012300
TAFDBQ
TAF
KDBQ 012320Z 0200/0224 32003KT P6SM FEW060
     FM020900 00000KT 4SM BR SKC
     FM021300 36003KT P6SM SCT050=

USA.gov is the U.S. government's official web portal to all federal, state and local government web resources and services.